New Bedford, MA

2:31 AM EST on January 19, 2017 (GMT -0500)
New Bedford Regional

Weather History for KEWB - August, 2014

Change the Weather History Date:

Friday, August 15, 2014

  Actual Average Record
Temperature  
Mean Temperature 64 °F -  
Max Temperature 73 °F 80 °F 93 °F (2016)
Min Temperature 55 °F 66 °F 51 °F (2013)
Degree Days  
Heating Degree Days 1    
Growing Degree Days 14 (Base 50)    
Moisture  
Dew Point 55 °F    
Average Humidity 74    
Maximum Humidity 97    
Minimum Humidity 43    
Precipitation  
Precipitation 0.00 in - - ()
Sea Level Pressure  
Sea Level Pressure 29.88 in    
Wind  
Wind Speed 5 mph (WSW)    
Max Wind Speed 16 mph    
Max Gust Speed 20 mph    
Visibility 10 miles    
Events      
Averages and records for this station are not official NWS values.
T = Trace of Precipitation, MM = Missing Value Source: NWS Daily Summary

Daily Weather History Graph

Daily Weather History Graph

Search for Another Location

Airport or City:

Trip Planner

Search our weather history database for the weather conditions in past years. The results will help you decide how hot, cold, wet, or windy it might be!

Date:

Astronomy

Aug. 15, 2014 Rise Set
Actual Time 5:52 AM EDT 7:43 PM EDT
Civil Twilight 5:22 AM EDT 8:13 PM EDT
Nautical Twilight 4:45 AM EDT 8:49 PM EDT
Astronomical Twilight 4:06 AM EDT 9:28 PM EDT
Moon 10:38 PM EDT (8/15) 11:37 AM EDT (8/15)
Length of Visible Light 14h 51m
Length of Day
13h 51m
Waning Gibbous, 69% of the Moon is Illuminated
Aug 15
Waning Gibbous
Aug 17
Last Quarter
Aug 25
New
Sep 2
First Quarter
Sep 8
Full

Hourly Weather History & Observations

Time (EDT) Temp. Dew Point Humidity Pressure Visibility Wind Dir Wind Speed Gust Speed Precip Events Conditions
12:53 AM 55.0 °F 53.1 °F 93% 29.88 in 10.0 mi Calm Calm - N/A   Clear
1:53 AM 55.0 °F 54.0 °F 96% 29.87 in 10.0 mi Calm Calm - N/A   Clear
2:53 AM 55.9 °F 55.0 °F 97% 29.85 in 10.0 mi Calm Calm - N/A   Mostly Cloudy
3:53 AM 55.9 °F 55.0 °F 97% 29.83 in 10.0 mi Calm Calm - N/A   Mostly Cloudy
4:53 AM 62.1 °F 60.1 °F 93% 29.83 in 10.0 mi Calm Calm - N/A   Clear
5:53 AM 61.0 °F 60.1 °F 97% 29.83 in 10.0 mi SW 4.6 mph - N/A   Clear
6:53 AM 64.0 °F 62.1 °F 93% 29.85 in 10.0 mi SSW 4.6 mph - N/A   Partly Cloudy
7:53 AM 66.9 °F 64.0 °F 90% 29.86 in 10.0 mi SW 8.1 mph - N/A   Partly Cloudy
8:53 AM 69.1 °F 59.0 °F 70% 29.87 in 10.0 mi WSW 9.2 mph - N/A   Clear
9:53 AM 69.8 °F 57.2 °F 64% 29.88 in 10.0 mi WSW 9.2 mph - N/A   Clear
10:53 AM 72.0 °F 53.1 °F 51% 29.87 in 10.0 mi West 11.5 mph 16.1 mph N/A   Clear
11:53 AM 72.0 °F 52.0 °F 49% 29.88 in 10.0 mi WNW 12.7 mph - N/A   Clear
12:53 PM 73.9 °F 53.1 °F 48% 29.87 in 10.0 mi WSW 9.2 mph 17.3 mph N/A   Clear
1:53 PM 73.9 °F 50.0 °F 43% 29.86 in 10.0 mi West 13.8 mph - N/A   Partly Cloudy
2:53 PM 73.9 °F 54.0 °F 50% 29.86 in 10.0 mi WSW 12.7 mph - N/A   Mostly Cloudy
3:53 PM 71.1 °F 53.1 °F 53% 29.86 in 10.0 mi WSW 16.1 mph - N/A   Mostly Cloudy
4:53 PM 71.1 °F 53.1 °F 53% 29.88 in 10.0 mi West 13.8 mph 19.6 mph N/A   Clear
5:53 PM 69.1 °F 51.1 °F 53% 29.88 in 10.0 mi WSW 13.8 mph - N/A   Partly Cloudy
6:53 PM 66.9 °F 53.1 °F 61% 29.89 in 10.0 mi Variable 6.9 mph - N/A   Clear
7:53 PM 62.1 °F 53.1 °F 72% 29.91 in 10.0 mi West 4.6 mph - N/A   Clear
8:53 PM 59.0 °F 53.1 °F 81% 29.93 in 10.0 mi WSW 3.5 mph - N/A   Clear
9:53 PM 57.0 °F 53.1 °F 87% 29.94 in 10.0 mi Calm Calm - N/A   Clear
10:53 PM 55.0 °F 52.0 °F 89% 29.94 in 10.0 mi Calm Calm - N/A   Clear
11:53 PM 59.0 °F 55.0 °F 87% 29.95 in 10.0 mi WSW 5.8 mph - N/A   Overcast